Other Surface Observations
Issued by NWS Missoula, MT

Home | Current Version | Previous Version | Text Only | Print | Product List | Glossary On
Versions: 1 2 3 4 5 6 7 8 9 10 11 12 13 14 15 16 17 18 19 20 21 22 23 24 25 26 27 28 29 30 31 32 33 34 35 36 37 38 39 40 41 42 43 44 45 46 47 48 49 50
446
SXUS55 KMSO 261423
OSOMSO
MONTANA AWOS SUMMARY
NATIONAL WEATHER SERVICE MISSOULA MT
823 AM MDT TUE JUL 26 2016

Montana AWOS Reports

TWIN BRIDGES|K7S1 261415Z AUTO 16004KT 40SM 14/06 A3016 RMK AO1 T01390056
ROUNDUP     |KRPX 261415Z AUTO 00000KT 40SM 19/11 A3000 RMK AO1 T01890111




USA.gov is the U.S. government's official web portal to all federal, state and local government web resources and services.